World > North America > United States > Texas > Mountain City  

Mountain City, TX Hourly Weather Updates

Feedback E-mail the Weather

Quick WX

Mountain City, TX Weather Maps

°F °C°F °C
Mountain City Weather Map
UTC Time: 3/5/2024, 10:33
Your Time:

Mountain City, TX Regional Weather

Expires:202403051100;;436888
ASUS44 KSJT 051010
RWRSJT
WEST CENTRAL TEXAS REGIONAL WEATHER ROUNDUP
NATIONAL WEATHER SERVICE SAN ANGELO TX
400 AM CST TUE MAR 05 2024

NOTE: "FAIR" INDICATES FEW OR NO CLOUDS BELOW 12,000 FEET WITH NO
SIGNIFICANT WEATHER AND/OR OBSTRUCTIONS TO VISIBILITY.


TXZ145-158-159-173-191-192-194-205-207-220-223-051100-
CENTRAL AND SOUTH CENTRAL TEXAS
  
CITY           SKY/WX    TMP DP  RH WIND       PRES   REMARKS
AUSTIN/BERGSTM PTCLDY    55  55 100 CALM      29.80R TC  13           
WACO           CLEAR     61  59  93 S3        29.78S TC  16           
HILLSBORO      CLEAR     64  56  77 CALM      29.78F TC  18           
TEMPLE         CLEAR     63  61  93 S5        29.80S TC  17           
KILLEEN-GRAY   CLEAR     68  62  80 W7        29.79S TC  20           
FORT HOOD      CLEAR     65  60  86 CALM      29.80S TC  18           
GEORGETOWN     CLEAR     61  59  93 W3        29.82S TC  16           
LAGO VISTA     NOT AVBL                                               
SAN MARCOS     FOG       57  57 100 CALM      29.82  VSB 1/4 TC  14   
NEW BRAUNFELS  FOG       60  59  96 CALM      29.80R VSB 1/4 TC  16   
RANDOLPH AFB   CLEAR     61  59  94 CALM      29.78S FOG     TC  16   
SAN ANTONIO    CLEAR     61  59  93 CALM      29.81F TC  16           
STINSON        FOG       59  57  93 CALM      29.79S VSB 3/4 TC  15   
PLEASANTON     NOT AVBL                                               
LA GRANGE      MOCLDY    69  69 100 S6        29.79S TC  21           
GIDDINGS       FOG       67  67  97 CALM      29.82R VSB 1/4 TC  20   
$$


SKY/WX - Weather  TMP - Temperature  DP - Dew Point  RH - Humidity
WIND - Wind Direction/Speed PRES - Barometric Pressure VSB - Visibility
WCI - Wind Chill Index E13G22 Wind - East Wind 13 mph/Gusts of 22 mph

Trending Headlines

Trending Entertainment Headlines

Mountain City Radar Loop

Use the map search tool if you want to place a location marker on the radar map...

Mountain City Quick Facts

National Two Day Weather Forecast


E-mail the Mountain City Weather Forecast

Voice your opinion or tell us about page issues...